Regional Weather Roundup
Issued by NWS Upton, NY

Current Version | Previous Version | Text Only | Print | Product List | Glossary On
Versions: 1 2 3 4 5 6 7 8 9 10 11 12 13 14 15 16 17 18 19 20 21 22 23 24 25 26 27
000
ASUS41 KOKX 281009
RWROKX

REGIONAL WEATHER ROUNDUP
NATIONAL WEATHER SERVICE NEW YORK NY
600 AM EDT WED JUN 28 2017

NOTE: "FAIR" INDICATES FEW OR NO CLOUDS BELOW 12,000 FEET WITH NO
SIGNIFICANT WEATHER AND/OR OBSTRUCTIONS TO VISIBILITY.

NYZ071-072-176-178-NJZ106-104-281100-
NEW YORK CITY METRO AREA

CITY           SKY/WX    TMP DP  RH WIND       PRES   REMARKS
Central Park   CLEAR     62  51  67 VRB5      30.11R
Bronx Bot Gard   N/A     61  48  63 W1        30.08F
LaGuardia APRT PTCLDY    64  52  64 NW12      30.07S
Kennedy INTL   PTCLDY    64  51  62 NW9       30.09R
Breezy Point     N/A     61 N/A N/A W7          N/A
Newark/Liberty CLEAR     60  50  69 W6        30.09R
Teterboro      CLEAR     59  50  72 W6        30.08R
$$

NYZ177-179-078>081-281100-
LONG ISLAND NEW YORK

CITY           SKY/WX    TMP DP  RH WIND       PRES   REMARKS
Jones Beach      N/A     63 N/A N/A NW9         N/A
Matinecock PT  NOT AVBL
Farmingdale    NOT AVBL
MacArthur/ISP  PTCLDY    59  54  83 NW5       30.06R
Shirley        CLEAR     56  54  93 NW3       30.06R
Mt Sinai Harb    N/A    N/A N/A N/A W8G15       N/A
Westhampton    CLEAR     48  45  89 CALM      30.07R
East Hampton   FAIR      49  47  92 CALM      30.05R
Montauk          N/A     56  54  93 CALM      30.06R
$$

NYZ052-065-067-281100-
HUDSON VALLEY

CITY           SKY/WX    TMP DP  RH WIND       PRES   REMARKS
White Plains   CLEAR     59  51  75 NW9       30.07R
Larchmont Harb   N/A     61 N/A N/A W5          N/A
Croton O-T Hud   N/A     61 N/A N/A NW9         N/A
Newburgh       CLEAR     54  52  94 W7        30.09R
Montgomery     CLEAR     49  47  93 S6        30.08R
Poughkeepsie   CLEAR     52  50  93 CALM      30.06R
Albany         PTCLDY    55  50  83 W5        30.05R
$$

NJZ001-105-106-008-010-013-015-019>022-104-281100-
NEW JERSEY

CITY           SKY/WX    TMP DP  RH WIND       PRES   REMARKS
Newark/Liberty CLEAR     60  50  69 W6        30.09R
Teterboro      CLEAR     59  50  72 W6        30.08R
Caldwell       CLEAR     57  51  80 CALM      30.10R
Somerville     CLEAR     52  50  93 MISG      30.09R
Linden         FAIR      59  50  72 CALM      30.10R
Perth Amboy      N/A     59 N/A N/A W7          N/A
Sussex         CLEAR     49  48  97 CALM      30.10R
Andover          N/A     50  49  96 CALM      30.11R
Trenton        CLEAR     58  50  75 W6        30.11R
Millville      CLEAR     52  52 100 W5        30.12R
Atlantic City  PTCLDY    58  51  78 W6        30.11R
Wrightstown    CLEAR     58  50  75 NW6       30.08R
Toms River     CLEAR     52  48  86 CALM      30.11R
Belmar         PTCLDY    56  50  80 W5        30.11R
$$

PAZ047>061-062-071-281100-
EASTERN PENNSYLVANIA

CITY           SKY/WX    TMP DP  RH WIND       PRES   REMARKS
Philadelphia   CLEAR     62  49  62 NW7       30.12R
Allentown      CLEAR     53  48  83 SW5       30.11R
Scranton       CLEAR     50  49  96 CALM      30.11R
$$

CTZ002-004>006-009-010-012-RIZ004-006-007-MAZ004-011-015-281100-
SOUTHERN NEW ENGLAND
 IN CT

CITY           SKY/WX    TMP DP  RH WIND       PRES   REMARKS
Bradley INTL   PTCLDY    53  50  89 SW5       30.06R
Hartford       PTCLDY    53  53 100 CALM      30.06R
Danbury        NOT AVBL
Wtrbury/Oxford CLEAR     52  45  76 N5        30.08R
Bridgeport     CLEAR     60  51  72 W3        30.06R
Meriden        CLEAR     50  49  96 CALM      30.06R
New Haven      CLEAR     58  53  84 NW5       30.06R
Chester        FAIR      57  48  72 NW5       30.05R
Groton         PTCLDY    53  51  93 CALM      30.04R
Wilimantic     CLOUDY    51  49  92 N3        30.06R FOG

 IN RI

CITY           SKY/WX    TMP DP  RH WIND       PRES   REMARKS
Providence     PTCLDY    56  52  86 W8        30.03R
Block Island   CLEAR     59  54  83 W7        30.05R
Westerly       CLEAR     55  52  89 CALM      30.05R
 IN MA

CITY           SKY/WX    TMP DP  RH WIND       PRES   REMARKS
Boston         PTCLDY    59  51  75 W9        30.01R
Worcester      CLEAR     51  48  89 MISG      30.03R
Westfield      CLEAR     49  49 100 SE6         N/A
Provincetown   CLEAR     58  53  84 W8        30.00S
Nantucket      CLEAR     59  51  75 NW6       30.01R
$$

ANZ330-335-338-340-345-350-353-355-281100-
COASTAL MARINE OBSERVATIONS


STATION/POSITION TIME  SKY/WX   TEMP    WIND        PRES    VSBY  WAVE
                                AIR SEA DIR/SP/G                  HT/PER
                 (UTC)          (F)     (DEG/KT/KT) (MB)    (MI)  (FT/S)
NY HARB ENTRANCE 0850            65 68  290/ 14/ 16 1018.1          2/ 3
20 S FIRE ISLAND 0950            66 69  330/ 16/ 19 1017.6          3/ 4
GREAT SOUTH BAY  0915            64 74  300/ 10/ 14   N/A
23 SSW MONTAUK P 0850            65 65              1017.3          1/ 9
15 E BARNEGAT LI 0930               65                N/A           2/ 4
HUDSON CANYON    0950            69 68  320/ 12/ 14 1017.7          2/ 4
KINGS POINT      0948            63 65  340/  6/  7 1018.5
EXECUTION ROCKS  0945            63      CALM  /  2   N/A
CENTRAL LI SOUND 0915            65     290/ 14/ 16   N/A           1
EASTERN LI SOUND NOT AVBL
ROBBINS REEF     0942                   270/  9/ 10 1019.3
$$


>>>>>>>>>>>>>>>>>>>>>>>>>>>> KEY <<<<<<<<<<<<<<<<<<<<<<<<<<<
>                                                          <
>     SKY/WX - Sky Condition/Present Weather               <
>     TMP    - Temperature in Fahrenheit                   <
>     DP     - Dew Point in Fahrenheit                     <
>     RH     - Relative Humidity in Percent                <
>     WIND   - Direction (from) and Speed in MPH           <
>     PRES   - Mean Sea Level Pressure (inches of Hg)      <
>     WCI    - Wind Chill Index                            <
>     VSB    - VISIBILITY IN MILES                         <
>     HX     - HEAT INDEX                                  <
>     TC     - TEMPERATURE IN CELSIUS                      <
>     VRB    - VARIABLE WIND DIRECTION                     <
>                                                          <
>>>>>>>>>>>>>>>>>>>>>>>>>>>> KEY <<<<<<<<<<<<<<<<<<<<<<<<<<<




USA.gov is the U.S. government's official web portal to all federal, state and local government web resources and services.